Location: NJAA Observatory
(40.6819°N, 74.8979°W)
Time: 10:45:40
(UTC-05:00)

Vanguard 1 - All Passes

Search period start: 20 December 2014 00:00
Search period end: 30 December 2014 00:00
Orbit: 653 x 3834 km, 34.3° (Epoch: 18 December)

Date Brightness Start Highest point End Pass type
(mag) Time Alt. Az. Time Alt. Az. Time Alt. Az.
20 Dec - 01:50:50 10° WSW 01:59:44 14° SW 02:08:24 10° SSW visible
20 Dec - 14:20:46 10° SSE 14:25:33 16° SE 14:31:56 10° E daylight
20 Dec - 16:35:51 10° SW 16:44:58 51° SSE 17:01:27 10° E visible
20 Dec - 18:55:09 10° WSW 19:07:56 70° S 19:29:43 10° ESE visible
20 Dec - 21:16:28 10° W 21:33:10 59° SSW 21:55:55 10° SE visible
20 Dec - 23:40:47 10° W 23:58:04 33° SW 00:16:38 10° SSE visible
21 Dec - 14:40:13 10° S 14:46:13 23° SE 14:55:14 10° E daylight
21 Dec - 16:56:52 10° WSW 17:06:19 58° SSE 17:23:43 10° E visible
21 Dec - 19:16:35 10° W 19:29:45 69° S 19:51:47 10° ESE visible
21 Dec - 21:38:12 10° W 21:54:57 52° SSW 22:17:06 10° SE visible
22 Dec - 00:03:44 10° W 00:19:23 26° SW 00:35:57 10° S visible
22 Dec - 15:00:23 10° SSW 15:07:02 31° SE 15:17:53 10° E daylight
22 Dec - 17:18:01 10° WSW 17:27:49 63° SSE 17:45:57 10° E visible
22 Dec - 19:38:03 10° W 19:51:36 66° S 20:13:43 10° ESE visible
22 Dec - 22:00:04 10° W 22:16:38 45° SSW 22:37:57 10° SSE visible
23 Dec - 00:27:39 10° W 00:40:38 19° SW 00:54:12 10° S visible
23 Dec - 15:20:56 10° SW 15:28:01 39° SSE 15:40:16 10° E daylight
23 Dec - 17:39:17 10° WSW 17:49:24 67° S 18:08:09 10° E visible
23 Dec - 19:59:34 10° W 20:13:25 62° SSW 20:35:28 10° ESE visible
23 Dec - 22:22:08 10° W 22:38:15 38° SW 22:58:22 10° SSE visible
24 Dec - 00:53:54 10° WSW 01:01:52 13° SW 01:10:01 10° SSW visible
24 Dec - 13:27:22 10° SSE 13:30:14 13° SE 13:33:39 10° ESE daylight
24 Dec - 15:41:45 10° SW 15:49:09 48° SSE 16:02:30 10° E daylight
24 Dec - 18:00:36 10° WSW 18:11:04 67° S 18:30:19 10° ESE visible
24 Dec - 20:21:08 10° W 20:35:12 56° SSW 20:56:57 10° SE visible
24 Dec - 22:44:31 10° W 22:59:47 31° SW 23:18:15 10° SSE visible
25 Dec - 13:46:25 10° S 13:50:56 19° SE 13:57:13 10° E daylight
25 Dec - 16:02:45 10° WSW 16:10:26 55° SSE 16:24:41 10° E daylight
25 Dec - 18:21:58 10° W 18:32:47 66° S 18:52:23 10° ESE visible
25 Dec - 20:42:48 10° W 20:56:57 49° SSW 21:18:07 10° SE visible
25 Dec - 23:07:29 10° W 23:21:16 24° SW 23:37:23 10° S visible
26 Dec - 14:06:30 10° SSW 14:11:46 27° SE 14:19:50 10° E daylight
26 Dec - 16:23:53 10° WSW 16:31:51 60° SSE 16:46:50 10° E daylight
26 Dec - 18:43:22 10° W 18:54:30 63° S 19:14:18 10° ESE visible
26 Dec - 21:04:36 10° W 21:18:39 42° SSW 21:38:55 10° SSE visible
26 Dec - 23:31:31 10° WSW 23:42:43 18° SW 23:55:16 10° S visible
27 Dec - 14:27:02 10° SSW 14:32:45 35° SSE 14:42:07 10° E daylight
27 Dec - 16:45:06 10° WSW 16:53:21 63° S 17:08:57 10° E visible
27 Dec - 19:04:49 10° W 19:16:13 58° SSW 19:36:01 10° ESE visible
27 Dec - 21:26:38 10° W 21:40:19 35° SSW 21:59:16 10° SSE visible
27 Dec - 23:58:52 10° WSW 00:04:10 11° SW 00:09:43 10° SSW visible
28 Dec - 14:47:51 10° SW 14:53:52 43° SSE 15:04:14 10° E daylight
28 Dec - 17:06:23 10° WSW 17:14:54 64° S 17:31:02 10° ESE visible
28 Dec - 19:26:20 10° W 19:37:56 51° SSW 19:57:29 10° SE visible
28 Dec - 21:49:03 10° W 22:01:57 28° SW 22:19:00 10° SSE visible
29 Dec - 12:52:44 10° S 12:55:58 16° SE 13:00:00 10° ESE daylight
29 Dec - 15:08:50 10° SW 15:15:06 50° SSE 15:26:17 10° E daylight
29 Dec - 17:27:42 10° W 17:36:30 62° S 17:53:01 10° ESE visible
29 Dec - 19:47:58 10° W 19:59:39 44° SSW 20:18:36 10° SE visible
29 Dec - 22:12:07 10° W 22:23:34 21° SW 22:37:52 10° S visible
